| DS18B20 | SHTC3 | PZEM-004T | WiFi | ||||||||
|---|---|---|---|---|---|---|---|---|---|---|---|
| ID | Date d/m/Y & Time | data1 สูง | data2 ต่ำ | data3 นอก | temp pcb | hum pcb | Volt | Amp | Watt | rssi | Time |
| 5326 | 21/07/2026 20:37:09 | 31.4  | 31.5  | 29.4  | 32.4  | 67.2  | 229.4  | 0.04  | 4.6  | -80  | 20:37 |
| 5325 | 21/07/2026 20:32:26 | 31.4  | 31.6  | 29.5  | 32.5  | 67.3  | 227.4  | 0.04  | 4.6  | -81  | 20:32 |
| 5324 | 21/07/2026 20:27:43 | 31.4  | 31.6  | 29.4  | 32.5  | 67.2  | 229.7  | 0.04  | 4.6  | -83  | 20:27 |
| 5323 | 21/07/2026 20:23:00 | 31.5  | 31.6  | 29.4  | 32.5  | 67.0  | 228.8  | 0.04  | 4.6  | -82  | 20:23 |
| 5322 | 21/07/2026 20:18:17 | 31.5  | 31.6  | 29.4  | 32.4  | 67.0  | 230.3  | 0.04  | 4.6  | -80  | 20:18 |
| 5321 | 21/07/2026 20:13:34 | 31.6  | 31.7  | 29.4  | 32.5  | 67.2  | 230.9  | 0.04  | 4.6  | -82  | 20:13 |
| 5320 | 21/07/2026 20:08:51 | 31.6  | 31.7  | 29.5  | 32.6  | 67.0  | 229.1  | 0.04  | 4.6  | -77  | 20:08 |
| 5319 | 21/07/2026 20:04:08 | 31.6  | 31.8  | 29.6  | 32.7  | 66.9  | 230.2  | 0.04  | 4.6  | -83  | 20:04 |
| 5318 | 21/07/2026 19:59:25 | 31.7  | 31.8  | 29.5  | 32.8  | 66.7  | 228.4  | 0.04  | 4.6  | -84  | 19:59 |
| 5317 | 21/07/2026 19:54:41 | 31.8  | 31.8  | 29.5  | 32.8  | 66.5  | 230.1  | 0.04  | 4.6  | -83  | 19:54 |
| 5316 | 21/07/2026 19:49:56 | 31.8  | 31.8  | 29.7  | 32.9  | 66.4  | 229.7  | 0.04  | 4.6  | -81  | 19:49 |
| 5315 | 21/07/2026 19:45:13 | 31.9  | 31.9  | 29.7  | 32.8  | 66.5  | 228.2  | 0.04  | 4.6  | -83  | 19:45 |
| 5314 | 21/07/2026 19:40:30 | 31.9  | 31.9  | 29.8  | 33.0  | 66.3  | 229.5  | 0.04  | 4.6  | -84  | 19:40 |
| 5313 | 21/07/2026 19:35:46 | 31.9  | 31.9  | 29.8  | 33.0  | 66.3  | 228.2  | 0.04  | 4.6  | -82  | 19:35 |
| 5312 | 21/07/2026 19:31:03 | 32.0  | 32.0  | 29.9  | 33.0  | 66.2  | 227.9  | 0.04  | 4.6  | -82  | 19:31 |
| 5311 | 21/07/2026 19:26:20 | 32.1  | 32.1  | 29.9  | 33.1  | 66.0  | 229.4  | 0.04  | 4.6  | -81  | 19:26 |
| 5310 | 21/07/2026 19:21:37 | 32.2  | 32.1  | 30.0  | 33.2  | 65.8  | 227.9  | 0.04  | 4.6  | -80  | 19:21 |
| 5309 | 21/07/2026 19:16:54 | 32.2  | 32.1  | 29.9  | 33.2  | 65.8  | 229.3  | 0.04  | 4.6  | -82  | 19:16 |
| 5308 | 21/07/2026 19:12:11 | 32.2  | 32.2  | 29.8  | 33.1  | 65.7  | 229.8  | 0.04  | 4.6  | -80  | 19:12 |
| 5307 | 21/07/2026 19:07:28 | 32.3  | 32.2  | 30.1  | 33.3  | 65.8  | 228.4  | 0.04  | 4.6  | -83  | 19:07 |
| 5306 | 21/07/2026 19:02:45 | 32.3  | 32.2  | 30.2  | 33.4  | 65.7  | 230.8  | 0.04  | 4.6  | -82  | 19:02 |
| 5305 | 21/07/2026 18:58:02 | 32.4  | 32.2  | 30.2  | 33.3  | 65.6  | 227.7  | 0.04  | 4.6  | -84  | 18:58 |
| 5304 | 21/07/2026 18:53:18 | 32.4  | 32.3  | 30.2  | 33.3  | 65.6  | 230.4  | 0.04  | 4.6  | -82  | 18:53 |
| 5303 | 21/07/2026 18:48:36 | 32.5  | 32.3  | 30.4  | 33.2  | 65.5  | 227.6  | 0.04  | 4.6  | -85  | 18:48 |